• In Switzerland
  • List of Countries
  • For 7 days
  • Water Temperature
  • Satellite Maps
  • Weather Map
  • Weather Widgets
  • user-avatar
    Login

    Hourly Weather Lubumbashi

    Today, 17 December, Sunday

    Time Temperature Precipitation Wind Pressure Humidity
    00:00 +21°C° 0 mm 5 mps 720 mmHg 31%
    01:00 +21°C° 0 mm 5 mps 720 mmHg 32%
    02:00 +20°C° 0 mm 5 mps 720 mmHg 33%
    03:00 +20°C° 0 mm 5 mps 720 mmHg 33%
    04:00 +19°C° 0 mm 5 mps 720 mmHg 33%
    05:00 +19°C° 0 mm 4 mps 720 mmHg 34%
    06:00 +20°C° 0 mm 5 mps 720 mmHg 31%
    07:00 +21°C° 0 mm 6 mps 721 mmHg 28%
    08:00 +22°C° 0 mm 6 mps 721 mmHg 25%
    09:00 +26°C° 0 mm 6 mps 721 mmHg 23%
    10:00 +29°C° 0 mm 6 mps 721 mmHg 20%
    11:00 +33°C° 0 mm 6 mps 721 mmHg 18%
    12:00 +34°C° 0 mm 5 mps 721 mmHg 16%
    13:00 +35°C° 0 mm 4 mps 720 mmHg 14%
    14:00 +36°C° 0 mm 3 mps 719 mmHg 12%
    15:00 +36°C° 0 mm 3 mps 719 mmHg 12%
    16:00 +36°C° 0 mm 3 mps 718 mmHg 12%
    17:00 +36°C° 0 mm 2 mps 718 mmHg 12%
    18:00 +33°C° 0 mm 3 mps 718 mmHg 15%
    19:00 +30°C° 0 mm 3 mps 719 mmHg 17%
    20:00 +28°C° 0 mm 4 mps 719 mmHg 19%
    21:00 +27°C° 0 mm 4 mps 719 mmHg 21%
    22:00 +26°C° 0 mm 5 mps 720 mmHg 22%
    23:00 +25°C° 0 mm 5 mps 720 mmHg 24%

    Tomorrow, 18 December, Monday

    Time Temperature Precipitation Wind Pressure Humidity
    00:00 +25°C° 0 mm 5 mps 720 mmHg 25%
    01:00 +23°C° 0 mm 5 mps 720 mmHg 26%
    02:00 +22°C° 0 mm 5 mps 720 mmHg 27%
    03:00 +22°C° 0 mm 5 mps 720 mmHg 27%
    04:00 +22°C° 0 mm 5 mps 719 mmHg 28%
    05:00 +21°C° 0 mm 5 mps 719 mmHg 28%
    06:00 +22°C° 0 mm 5 mps 720 mmHg 26%
    07:00 +23°C° 0 mm 6 mps 720 mmHg 24%
    08:00 +24°C° 0 mm 7 mps 721 mmHg 23%
    09:00 +28°C° 0 mm 7 mps 721 mmHg 20%
    10:00 +32°C° 0 mm 6 mps 721 mmHg 18%
    11:00 +35°C° 0 mm 6 mps 721 mmHg 16%
    12:00 +36°C° 0 mm 5 mps 720 mmHg 15%
    13:00 +37°C° 0 mm 4 mps 719 mmHg 14%
    14:00 +38°C° 0 mm 3 mps 718 mmHg 13%
    15:00 +38°C° 0 mm 3 mps 718 mmHg 13%
    16:00 +38°C° 0 mm 3 mps 717 mmHg 13%
    17:00 +38°C° 0 mm 2 mps 717 mmHg 14%
    18:00 +35°C° 0 mm 3 mps 717 mmHg 15%
    19:00 +33°C° 0 mm 3 mps 718 mmHg 17%
    20:00 +30°C° 0 mm 4 mps 718 mmHg 19%
    21:00 +29°C° 0 mm 4 mps 718 mmHg 19%
    22:00 +28°C° 0 mm 5 mps 719 mmHg 19%
    23:00 +27°C° 0 mm 5 mps 719 mmHg 19%

    Day after tomorrow, 19 December, Tuesday

    Time Temperature Precipitation Wind Pressure Humidity
    00:00 +26°C° 0 mm 5 mps 718 mmHg 20%
    01:00 +26°C° 0 mm 5 mps 718 mmHg 22%
    02:00 +25°C° 0 mm 5 mps 718 mmHg 23%
    03:00 +23°C° 0 mm 4 mps 718 mmHg 24%
    04:00 +23°C° 0 mm 4 mps 718 mmHg 26%
    05:00 +22°C° 0 mm 4 mps 718 mmHg 27%
    06:00 +23°C° 0 mm 4 mps 719 mmHg 27%
    07:00 +25°C° 0 mm 5 mps 720 mmHg 26%
    08:00 +26°C° 0 mm 5 mps 720 mmHg 25%
    09:00 +29°C° 0 mm 5 mps 720 mmHg 22%
    10:00 +33°C° 0 mm 5 mps 721 mmHg 18%
    11:00 +36°C° 0 mm 5 mps 721 mmHg 15%
    12:00 +37°C° 0 mm 4 mps 720 mmHg 14%
    13:00 +38°C° 0 mm 4 mps 719 mmHg 13%
    14:00 +39°C° 0 mm 3 mps 718 mmHg 12%
    15:00 +39°C° 0 mm 3 mps 718 mmHg 12%
    16:00 +39°C° 0 mm 2 mps 717 mmHg 12%
    17:00 +38°C° 0 mm 2 mps 717 mmHg 13%
    18:00 +36°C° 0 mm 2 mps 717 mmHg 14%
    19:00 +34°C° 0 mm 3 mps 718 mmHg 16%
    20:00 +32°C° 0 mm 4 mps 718 mmHg 17%
    21:00 +30°C° 0 mm 4 mps 718 mmHg 18%
    22:00 +29°C° 0 mm 4 mps 718 mmHg 18%
    23:00 +28°C° 0 mm 5 mps 718 mmHg 19%

    20 December, Wednesday

    Time Temperature Precipitation Wind Pressure Humidity
    00:00 +28°C° 0 mm 5 mps 718 mmHg 20%
    01:00 +27°C° 0 mm 5 mps 718 mmHg 21%
    02:00 +26°C° 0 mm 5 mps 718 mmHg 22%
    03:00 +26°C° 0 mm 5 mps 718 mmHg 24%
    04:00 +25°C° 0 mm 5 mps 718 mmHg 25%
    05:00 +25°C° 0 mm 4 mps 718 mmHg 26%
    06:00 +26°C° 0 mm 5 mps 719 mmHg 26%
    07:00 +27°C° 0 mm 5 mps 720 mmHg 25%
    08:00 +28°C° 0 mm 6 mps 720 mmHg 24%
    09:00 +30°C° 0 mm 6 mps 720 mmHg 21%
    10:00 +34°C° 0 mm 5 mps 720 mmHg 18%
    11:00 +37°C° 0 mm 5 mps 721 mmHg 15%
    12:00 +38°C° 0 mm 4 mps 720 mmHg 14%
    13:00 +39°C° 0 mm 3 mps 719 mmHg 13%
    14:00 +40°C° 0 mm 3 mps 718 mmHg 12%
    15:00 +40°C° 0 mm 3 mps 718 mmHg 12%
    16:00 +40°C° 0 mm 3 mps 717 mmHg 13%
    17:00 +39°C° 0 mm 3 mps 717 mmHg 13%
    18:00 +37°C° 0 mm 3 mps 718 mmHg 15%
    19:00 +35°C° 0 mm 4 mps 718 mmHg 16%
    20:00 +33°C° 0 mm 4 mps 719 mmHg 18%
    21:00 +32°C° 0 mm 5 mps 719 mmHg 20%
    22:00 +30°C° 0 mm 5 mps 719 mmHg 21%
    23:00 +30°C° 0 mm 5 mps 719 mmHg 23%

    21 December, Thursday

    Time Temperature Precipitation Wind Pressure Humidity
    00:00 +29°C° 0 mm 5 mps 719 mmHg 24%
    01:00 +28°C° 0 mm 5 mps 719 mmHg 26%
    02:00 +28°C° 0 mm 5 mps 718 mmHg 27%
    03:00 +27°C° 0 mm 5 mps 719 mmHg 28%
    04:00 +26°C° 0 mm 5 mps 719 mmHg 29%
    05:00 +26°C° 0 mm 5 mps 719 mmHg 30%
    06:00 +27°C° 0 mm 5 mps 720 mmHg 29%
    07:00 +28°C° 0 mm 6 mps 720 mmHg 27%
    08:00 +29°C° 0 mm 7 mps 721 mmHg 25%
    09:00 +33°C° 0 mm 7 mps 721 mmHg 22%
    10:00 +36°C° 0 mm 7 mps 721 mmHg 19%
    11:00 +39°C° 0 mm 7 mps 721 mmHg 15%
    12:00 +40°C° 0 mm 6 mps 720 mmHg 14%
    13:00 +41°C° 0 mm 5 mps 719 mmHg 13%
    14:00 +42°C° 0 mm 4 mps 718 mmHg 12%
    15:00 +42°C° 0 mm 4 mps 718 mmHg 13%
    16:00 +40°C° 0 mm 3 mps 718 mmHg 13%
    17:00 +40°C° 0 mm 3 mps 718 mmHg 13%
    18:00 +38°C° 0 mm 3 mps 718 mmHg 15%
    19:00 +36°C° 0 mm 4 mps 718 mmHg 17%
    20:00 +33°C° 0 mm 4 mps 718 mmHg 19%
    21:00 +32°C° 0 mm 5 mps 718 mmHg 20%
    22:00 +32°C° 0 mm 5 mps 719 mmHg 21%
    23:00 +30°C° 0 mm 6 mps 719 mmHg 22%

    22 December, Friday

    Time Temperature Precipitation Wind Pressure Humidity
    00:00 +29°C° 0 mm 6 mps 718 mmHg 23%
    01:00 +29°C° 0 mm 6 mps 718 mmHg 24%
    02:00 +28°C° 0 mm 5 mps 718 mmHg 25%
    03:00 +27°C° 0 mm 5 mps 718 mmHg 26%
    04:00 +26°C° 0 mm 5 mps 719 mmHg 28%
    05:00 +26°C° 0 mm 4 mps 719 mmHg 29%
    06:00 +27°C° 0 mm 5 mps 719 mmHg 28%
    07:00 +28°C° 0 mm 6 mps 720 mmHg 28%
    08:00 +29°C° 0 mm 7 mps 720 mmHg 27%
    09:00 +32°C° 0 mm 7 mps 720 mmHg 24%
    10:00 +35°C° 0 mm 7 mps 720 mmHg 20%
    11:00 +39°C° 0 mm 7 mps 720 mmHg 17%
    12:00 +40°C° 0 mm 6 mps 720 mmHg 16%
    13:00 +41°C° 0 mm 5 mps 719 mmHg 14%
    14:00 +42°C° 0 mm 5 mps 718 mmHg 13%
    15:00 +41°C° 0 mm 4 mps 718 mmHg 13%
    16:00 +41°C° 0 mm 4 mps 717 mmHg 13%
    17:00 +39°C° 0 mm 3 mps 717 mmHg 14%
    18:00 +37°C° 0 mm 4 mps 717 mmHg 16%
    19:00 +35°C° 0 mm 4 mps 717 mmHg 18%
    20:00 +33°C° 0 mm 5 mps 718 mmHg 20%
    21:00 +32°C° 0 mm 5 mps 718 mmHg 21%
    22:00 +30°C° 0 mm 6 mps 718 mmHg 21%
    23:00 +30°C° 0 mm 6 mps 718 mmHg 22%
    Show more